Location: Natural Bridges National Monument
(37.6093°N, 109.9767°W)
Time: 04:15:47
(UTC-06:00)

USA 32 - Visible Passes

Search period start: 21 April 2014 00:00
Search period end: 01 May 2014 00:00
Orbit: 778 x 784 km, 85.0° (Epoch: 17 April)

Date Brightness Start Highest point End Pass type
(mag) Time Alt. Az. Time Alt. Az. Time Alt. Az.
21 Apr 6.1 21:29:45 11° ENE 21:29:45 11° ENE 21:30:32 10° ENE visible
21 Apr 4.8 23:10:15 50° NNW 23:10:15 50° NNW 23:14:13 10° N visible
22 Apr 4.4 22:37:24 54° NE 22:37:24 54° NE 22:41:38 10° N visible
23 Apr 6.6 00:17:55 13° WNW 00:17:55 13° WNW 00:20:16 10° NW visible
23 Apr 4.8 22:04:32 35° ENE 22:04:32 35° ENE 22:08:45 10° NNE visible
23 Apr 5.9 23:45:02 24° WNW 23:45:02 24° WNW 23:49:12 10° NNW visible
24 Apr 5.4 21:31:37 20° E 21:31:42 20° E 21:35:25 10° NE visible
24 Apr 5.0 23:12:07 42° W 23:12:18 42° W 23:17:16 10° N visible
25 Apr 6.0 20:58:40 10° E 20:59:30 10° ENE 21:00:26 10° ENE visible
25 Apr 4.0 22:39:10 69° SW 22:39:41 77° W 22:44:57 10° N visible
26 Apr 4.1 22:06:10 50° SE 22:07:10 59° E 22:12:19 10° NNE visible
26 Apr 6.5 23:46:40 12° W 23:48:32 15° WNW 23:51:22 10° NW visible
27 Apr 4.8 21:33:08 27° ESE 21:34:46 32° E 21:39:23 10° NNE visible
27 Apr 5.9 23:13:38 20° WSW 23:15:42 26° WNW 23:20:03 10° NNW visible
28 Apr 5.5 21:00:03 13° ESE 21:02:28 18° E 21:05:55 10° NE visible
28 Apr 4.9 22:40:32 27° SW 22:42:59 46° W 22:48:02 10° N visible
29 Apr 4.0 22:07:23 26° S 22:10:23 85° W 22:15:40 10° N visible
30 Apr 4.2 21:34:10 18° SSE 21:37:54 53° E 21:42:59 10° NNE visible
30 Apr 6.6 23:16:02 10° WSW 23:19:11 16° WNW 23:22:22 10° NW visible
